Content
SEND FEEDBACK

Daily
Averages
Monthly
Summary
United States of America

GREENWICH, CONNECTICUT


Home > North America > United States > Connecticut
Elevation: 300 feet     Latitude: 41 05N     Longitude: 073 38W

WEATHER
 
SELECT A DAY
Number of Records: 178,810;   Date Range: 1/1/95 - 11/22/14
 
SHARE

PRINT THIS DATA

[ ← Previous Day ]
WEATHER ALMANAC - JANUARY 31, 2013
[ Next Day → ]
[ °C ]   °F
Weather ElementAverageHighLow
Temperature44.9 °F57.2 °F (4:28 am)28 °F (11:56 pm)
Dewpoint30.5 °F55.4 °F (4:28 am)7 °F (11:56 pm)
Humidity60.5 %94 % (1:06 am)32 % (3:56 pm)
Barometer29.36 in29.75 in (11:56 pm)29.04 in (5:56 am)
Wind Speed16.6 mph26.5 mph (7:10 am)
Wind Gust54.1 mph (2:56 am)
Weather ElementAverage
Visibility7.8 mi
Wind DirectionSW (227.1 °)

Weather ElementTotal
Precipitation1.68 in
Heating Degree Days22.4 (Base 65)
Averaged from 28 records on January 31, 2013
WEATHER CONDITIONS BREAKOUT
WIND DIRECTION BREAKOUT
WEATHER BY HOUR - JANUARY 31, 2013
[ °C ]   °F
Local TimeTemperatureDewpointHumidityBarometerVisibilityWind DirectionWind SpeedGust SpeedPrecipitationEventsConditions
1:06 AM55.4 °F53.6 °F94 %29.30 in2.0 miSouth (170°)18.4 mph28.8 mph0.10 inRain-ThunderstormThunderstorms and Rain
1:32 AM55.4 °F53.6 °F94 %29.28 in4.0 miSouth (180°)17.3 mph32.2 mph0.15 inRainRain
1:56 AM55.0 °F53.1 °F93 %29.24 in5.0 miSouth (170°)21.9 mph31.1 mph0.18 inRainRain
2:56 AM55.0 °F53.1 °F93 %29.16 in4.0 miSouth (170°)21.9 mph54.1 mph0.10 inRainRain
3:56 AM55.0 °F53.1 °F93 %29.07 in1.5 miSouth (190°)21.9 mph43.7 mph0.22 inRainRain
4:28 AM57.2 °F55.4 °F94 %29.14 in1.0 miSSW (210°)9.2 mph32.2 mph0.36 inRainHeavy Rain
4:56 AM57.0 °F54.0 °F89 %29.11 in6.0 miVariable6.9 mph0.41 inRainLight Rain
5:56 AM55.0 °F52.0 °F89 %29.04 in10.0 miSSE (160°)6.9 mph0.09 inOvercast
6:56 AM55.0 °F51.1 °F86 %29.06 in7.0 miVariable5.8 mph16.1 mphOvercast
6:58 AM55.4 °F51.8 °F88 %29.09 in1.5 miWSW (250°)16.1 mph38.0 mph0.01 inRainLight Rain
7:10 AM50.0 °F39.2 °F66 %29.10 in5.0 miWest (270°)26.5 mph40.3 mph0.03 inRainLight Rain
7:56 AM48.0 °F33.1 °F56 %29.14 in10.0 miWest (260°)12.7 mph25.3 mph0.03 inMostly Cloudy
8:56 AM46.0 °F30.9 °F56 %29.24 in10.0 miWest (270°)19.6 mph38.0 mphMostly Cloudy
9:56 AM45.0 °F26.1 °F48 %29.31 in10.0 miWest (280°)25.3 mph34.5 mphMostly Cloudy
10:56 AM44.1 °F23.0 °F43 %29.34 in10.0 miWest (280°)18.4 mph29.9 mphMostly Cloudy
11:56 AM44.1 °F21.9 °F42 %29.36 in10.0 miWest (260°)16.1 mph28.8 mphMostly Cloudy
12:56 PM44.1 °F19.9 °F38 %29.38 in10.0 miWNW (290°)16.1 mph28.8 mphMostly Cloudy
1:56 PM43.0 °F17.1 °F35 %29.40 in10.0 miWSW (250°)15.0 mph36.8 mphScattered Clouds
2:56 PM43.0 °F16.0 °F34 %29.45 in10.0 miWest (260°)20.7 mph33.4 mphScattered Clouds
3:56 PM41.0 °F12.9 °F32 %29.49 in10.0 miWest (270°)13.8 mph34.5 mphMostly Cloudy
4:56 PM37.0 °F12.0 °F36 %29.53 in10.0 miWest (270°)19.6 mph29.9 mphScattered Clouds
5:56 PM35.1 °F10.9 °F37 %29.60 in10.0 miWest (270°)23.0 mph31.1 mphPartly Cloudy
6:56 PM33.1 °F10.9 °F40 %29.65 in10.0 miWest (270°)11.5 mph29.9 mphClear
7:56 PM32.0 °F10.9 °F42 %29.68 in10.0 miWest (270°)16.1 mph28.8 mphClear
8:56 PM30.9 °F12.9 °F47 %29.70 in10.0 miWest (280°)11.5 mph18.4 mphClear
9:56 PM28.9 °F10.9 °F47 %29.72 in10.0 miWest (270°)23.0 mph32.2 mphClear
10:56 PM28.9 °F8.1 °F41 %29.73 in10.0 miWest (270°)17.3 mph29.9 mphClear
11:56 PM28.0 °F7.0 °F41 %29.75 in10.0 miWest (270°)12.7 mph21.9 mphClear
Hourly data recorded from KHPN, located miles away from Greenwich, Connecticut







STORIES FROM OUR PARTNERS